CDT,Max TemperatureF,Mean TemperatureF,Min TemperatureF,Max Dew PointF,MeanDew PointF,Min DewpointF,Max Humidity, Mean Humidity, Min Humidity, Max Sea Level PressureIn, Mean Sea Level PressureIn, Min Sea Level PressureIn, Max VisibilityMiles, Mean VisibilityMiles, Min VisibilityMiles, Max Wind SpeedMPH, Mean Wind SpeedMPH, Max Gust SpeedMPH,PrecipitationIn, CloudCover, Events, WindDirDegrees
2012-9-1,89,84,80,79,78,75,94,78,62,30.17,30.11,30.08,10,8,2,9,4,,0.00,3,,176
2012-9-2,93,84,75,79,75,70,100,73,46,30.11,30.05,29.98,10,7,1,7,2,,0.00,3,,268
2012-9-3,93,84,75,79,75,72,100,69,49,30.05,30.00,29.93,10,9,5,9,4,17,0.00,4,,253
2012-9-4,93,86,78,77,76,73,94,70,55,29.98,29.94,29.88,10,9,7,12,4,17,0.00,4,,273
2012-9-5,93,86,78,79,77,75,94,78,56,29.90,29.86,29.83,10,9,7,12,6,17,0.00,4,,320
2012-9-6,91,83,75,77,75,73,100,69,59,29.98,29.91,29.88,10,10,7,10,5,,0.00,2,,99
2012-9-7,89,83,77,75,74,72,94,68,55,29.94,29.89,29.83,10,10,7,10,4,16,0.00,3,,120
2012-9-8,93,85,77,75,74,73,94,70,52,29.89,29.85,29.80,7,7,7,21,4,30,0.00,4,,345
2012-9-9,84,75,66,64,61,57,88,59,40,30.03,30.00,29.97,10,8,7,12,8,17,0.00,0,,9
2012-9-10,87,74,60,66,60,57,94,62,35,30.11,30.08,30.04,10,10,7,9,4,,0.00,0,,33
2012-9-11,87,78,69,68,65,63,78,58,43,30.15,30.12,30.09,10,10,10,9,6,16,0.00,2,,99
2012-9-12,87,79,71,73,72,64,79,72,62,30.15,30.12,30.08,10,9,7,12,6,23,0.00,4,,108
2012-9-13,87,79,71,73,73,66,83,72,62,30.16,30.12,30.08,10,10,7,12,6,18,0.00,3,,121
2012-9-14,89,79,69,70,66,63,94,59,40,30.15,30.11,30.06,10,10,7,10,5,,0.00,1,,58
2012-9-15,89,78,66,73,69,64,94,66,46,30.13,30.08,30.04,10,8,7,8,4,,0.00,2,,90
2012-9-16,87,80,73,73,73,72,94,70,58,30.04,30.00,29.94,10,9,7,12,5,,0.00,4,,144
2012-9-17,80,76,73,75,74,72,94,91,79,29.88,29.81,29.71,7,6,2,9,4,16,0.00,7,Rain,164
2012-9-18,82,76,71,72,70,68,100,79,62,29.91,29.86,29.80,10,9,7,17,6,23,0.00,5,,336
2012-9-19,84,73,62,66,62,59,94,65,48,30.09,30.05,30.01,10,10,7,8,3,,0.00,0,,23
2012-9-20,84,72,60,68,63,57,94,64,48,30.10,30.04,29.99,10,10,10,6,1,,0.00,2,,100
2012-9-21,87,76,64,72,66,63,100,69,46,30.05,30.00,29.96,10,9,5,8,3,,0.00,1,,128
2012-9-22,91,80,69,73,68,63,94,66,40,30.09,30.06,30.02,10,9,6,5,1,,0.00,1,,353
2012-9-23,91,78,66,72,69,64,100,67,43,30.16,30.14,30.10,7,7,5,6,2,,0.00,1,,0
2012-9-24,89,80,71,72,68,66,94,65,46,30.17,30.13,30.07,10,7,3,7,5,,0.00,1,,29
2012-9-25,84,74,64,68,65,63,94,68,55,30.13,30.11,30.06,10,9,7,9,2,,0.00,1,,120
2012-9-26,91,83,71,72,70,68,100,67,52,30.13,30.09,30.06,10,10,10,7,3,,0.00,2,,140
2012-9-27,87,78,68,73,71,66,94,73,55,30.14,30.09,30.04,10,9,3,9,3,,0.00,2,,134
2012-9-28,82,76,71,75,73,70,100,86,74,30.08,30.04,30.00,10,8,3,13,2,,0.00,6,Rain,105
2012-9-29,77,75,73,73,73,73,100,94,89,29.99,29.92,29.88,10,5,2,6,3,,0.00,8,Rain,125
2012-9-30,82,78,75,77,74,72,94,89,70,29.78,29.70,29.60,7,6,1,17,8,28,0.00,7,Rain,184